Find Starlink 36820

NORAD ID: 67966 Int'l Des: 2026-038 Owner: SPXS Country: US Constellation: starlink operational
LEOCIRCULARRETROGRADE

リアルタイム位置

3D地球を読み込み中...

Starlink 36820について

説明を読み込み中...

次回通過

Passes for default location (London). Set your location on the main map for personalized predictions.

高度履歴

Loading altitude history...

軌道要素

1 67966U 26038F 26106.77335451 .00008877 00000-0 27695-3 0 9995
2 67966 97.2833 117.3121 0001747 93.2978 266.8465 15.33444716 9072
Epoch: Apr 16, 2026 • Age: 23 hours

現在のステータス

高度 471.8 km
速度 7.64 km/s
衛星直下点 46.12°N, 156°W
打ち上げ日 Feb 25, 2026
運用期間 0.1 years
タイプ internet

技術仕様

分類 Payload
質量 575.00 kg
乾燥質量 530.00 kg
総質量 575.00 kg
長さ 0.30 m
直径 4.10 m
スパン 29.00 m
形状 Box + pan
製造者 SPXS
バスタイプ Starlink V2MO
フェーズステータス In Orbit
所有者/国 SPXS/US

Most Searched